sat.trackr.live / text

‹ back to catalog

STARLINK-33838

NORAD 63500 · 2025-071H

PAYLOAD ACTIVE UNKNOWN

§ Identity

Operator
Country
US
Launch date
2025-04-07
Launch site
AFWTR
Launch vehicle
Mass (kg)
RCS (m²)

Purposes: comms

External: N2YO · Heavens-Above · Gunter

§ Orbital elements

Epoch: 2026-05-24T17:31:51.310272Z

Period
94.11 min
Inclination
53.1591°
Eccentricity
0.0001366
Mean motion
15.30195221 rev/d
Perigee alt
474.3 km
Apogee alt
476.2 km
Semi-major
6,853.4 km
B*
3.7550e-4
RAAN
146.6101°
Arg perigee
80.6087°
Mean anomaly
279.5068°
Rev number
6,420

§ Raw data

STARLINK-338381 63500U 25071H   26144.73045498  .00010777  00000+0  37550-3 0  99902 63500  53.1591 146.6101 0001366  80.6087 279.5068 15.30195221 64202

JSON: /api/v1/satellites/63500 · /tle

For live sub-satellite position, see the globe view (requires WebGL).

§ Visibility from observer

Set your observer location to see the next 7 days of passes ≥ 10°. The values pass through the URL so the page stays shareable.

No JS? Fill the form by hand. The geolocation button needs JavaScript.